Home > Time Zones > World Clock > Weather > U.S.A. > Adak > Past weeks

Flag for U.S.A. Weather past 2 weeks in Adak, Alaska, U.S.A.

Now
50 °F

Passing clouds.


Feels Like: 45 °F
Forecast: 47 / 53 °F
Wind: 13 mph from Northwest

Location: Adak

Current Time: Sep 15, 2014 at 4:18:30 PM

Latest Report: Sep 15, 2014 at 3:56 PM


Visibility: 10 mi

Pressure: 29.67 "Hg

Humidity: 76%

Dew point: 43 °F

Location of AdakLocation

Historic Weather in Adak — Graph

°F

Adak temperature yesterday

Maximum temperature yesterday: 57 °F (at 4:56 PM)
Minimum temperature yesterday: 48 °F (at 1:56 AM)
Average temperature yesterday: 51 °F

Past Weeks' High & Low Weather Summary

 TemperatureHumidityPressure
High57 °F (Aug 31, 4:16 PM)94% (Sep 9, 3:56 AM)30.33 "Hg (Sep 9, 3:56 AM)
Low41 °F (Sep 1, 3:56 AM)58% (Sep 3, 1:36 PM)28.96 "Hg (Sep 6, 8:36 PM)
Average51 °F77%29.68 "Hg
* Reported Aug 31 3:16 PM — Sep 15 3:16 PM, Adak, Weather by CustomWeather, © 2014

Note: Actual official high and low records may vary slightly from our data, if they occured in-between our weather recording intervals... More about our weather records

Advertising

Adak weather history for previous 24 hours

 ConditionsComfort  
Time TempWeatherWind HumidityBarometerVisibility
3:16 PM
Sep 15
50 °FBroken clouds.17 mph76%29.66 "Hg10 mi
2:56 PM50 °FCloudy.17 mph76%29.65 "Hg10 mi
2:36 PM48 °FMostly cloudy.16 mph82%29.65 "Hg10 mi
2:16 PM48 °FCloudy.16 mph82%29.64 "Hg10 mi
1:56 PM50 °FCloudy.17 mph82%29.63 "Hg2 mi
1:36 PM50 °FCloudy.17 mph82%29.63 "Hg2 mi
1:16 PM52 °FMostly cloudy.16 mph77%29.61 "Hg2 mi
12:56 PM52 °FMostly cloudy.13 mph82%29.61 "Hg8 mi
12:16 PM52 °FBroken clouds.8 mph82%29.59 "Hg10 mi
11:56 AM52 °FMostly cloudy.14 mph82%29.59 "Hg10 mi
11:36 AM50 °FMostly cloudy.14 mph82%29.58 "Hg10 mi
11:16 AM48 °FMore clouds than sun.14 mph87%29.58 "Hg3 mi
10:56 AM48 °FLow clouds.15 mph87%29.58 "Hg7 mi
10:36 AM50 °FLow clouds.9 mph82%29.59 "Hg4 mi
10:16 AM50 °FLow clouds.13 mph82%29.58 "Hg2 mi
9:56 AM52 °FLow clouds.14 mph82%29.58 "Hg5 mi
9:36 AM52 °FLow clouds.15 mph82%29.58 "Hg3 mi
8:56 AM52 °FLow clouds.10 mph82%29.59 "Hg2 mi
8:36 AM52 °FOvercast.10 mph82%29.59 "Hg4 mi
8:16 AM52 °FOvercast.10 mph82%29.59 "Hg5 mi
7:56 AM52 °FOvercast.12 mph82%29.59 "Hg5 mi
7:36 AM52 °FMostly cloudy.13 mph82%29.59 "Hg6 mi
6:56 AM52 °FOvercast.8 mph82%29.60 "Hg8 mi
6:36 AM52 °FOvercast.10 mph77%29.60 "Hg10 mi
6:16 AM52 °FOvercast.12 mph77%29.61 "Hg10 mi
5:56 AM52 °FMostly cloudy.12 mph77%29.62 "Hg10 mi
5:16 AM48 °FOvercast.6 mph82%29.64 "Hg10 mi
4:56 AM48 °FMostly cloudy.3 mph82%29.66 "Hg10 mi
4:36 AM48 °FOvercast.8 mph82%29.67 "Hg10 mi
4:16 AM48 °FOvercast.10 mph82%29.68 "Hg10 mi
3:56 AM48 °FOvercast.10 mph82%29.70 "Hg10 mi
3:36 AM48 °FMostly cloudy.7 mph82%29.71 "Hg10 mi
3:16 AM48 °FMostly cloudy.6 mph76%29.72 "Hg10 mi
2:56 AM48 °FOvercast.12 mph76%29.73 "Hg10 mi
2:36 AM48 °FOvercast.12 mph76%29.73 "Hg10 mi
2:16 AM48 °FOvercast.12 mph82%29.74 "Hg8 mi
1:56 AM50 °FOvercast.3 mph76%29.75 "Hg8 mi
1:36 AM48 °FOvercast.7 mph82%29.76 "Hg10 mi
1:16 AM50 °FOvercast.7 mph76%29.76 "Hg10 mi
12:56 AM48 °FOvercast.7 mph82%29.77 "Hg10 mi
12:36 AM48 °FOvercast.No wind82%29.77 "Hg10 mi
12:16 AM48 °FOvercast.No wind82%29.78 "Hg10 mi
11:56 PM
Sep 14
48 °FOvercast.No wind82%29.79 "Hg10 mi
11:36 PM48 °FOvercast.No wind82%29.78 "Hg10 mi
11:16 PM48 °FOvercast.No wind82%29.78 "Hg9 mi
10:56 PM48 °FOvercast.No wind82%29.79 "Hg10 mi
10:36 PM48 °FOvercast.5 mph76%29.80 "Hg10 mi
10:16 PM48 °FOvercast.8 mph82%29.80 "Hg10 mi
9:56 PM48 °FOvercast.9 mph82%29.81 "Hg10 mi
9:36 PM48 °FOvercast.10 mph82%29.81 "Hg10 mi
9:16 PM48 °FMostly cloudy.12 mph82%29.81 "Hg10 mi
8:56 PM48 °FMostly cloudy.10 mph76%29.81 "Hg10 mi
8:36 PM50 °FMostly cloudy.10 mph76%29.81 "Hg10 mi
8:16 PM52 °FOvercast.9 mph72%29.81 "Hg10 mi
7:56 PM52 °FOvercast.7 mph72%29.81 "Hg10 mi
7:36 PM52 °FPartly sunny.10 mph72%29.81 "Hg10 mi
7:16 PM52 °FScattered clouds.13 mph77%29.80 "Hg10 mi
6:56 PM54 °FOvercast.8 mph67%29.80 "Hg10 mi
6:36 PM54 °FOvercast.8 mph67%29.81 "Hg10 mi
6:16 PM52 °FPartly sunny.12 mph72%29.80 "Hg10 mi
5:56 PM54 °FScattered clouds.13 mph67%29.81 "Hg10 mi
5:36 PM55 °FScattered clouds.12 mph63%29.82 "Hg10 mi
5:16 PM55 °FScattered clouds.13 mph67%29.81 "Hg10 mi
4:56 PM57 °FSunny.12 mph63%29.82 "Hg10 mi
4:36 PM54 °FSunny.10 mph72%29.82 "Hg10 mi
4:16 PM54 °FSunny.12 mph67%29.82 "Hg10 mi
Weather by CustomWeather, © 2014

See weather overviewHow to use our weather pages